Dewpoint
44 47 48 48 49 49 49 49 49 49 48 49 49 49 49 49 50 48 49 51 51 50 49 48 47 47 47 49 49 50 51 52 52 52 54 55 54 54 54 54 55 56 57 56 55 58 58 60 63 64 64 63 62 62 63 62 62 62 62 63 62 62 62 63 64 63 62 61 59 59 60 60 60 58 56 56 58 60 60 60 60 61 60 61 61
45 46 48 48 48 48 49 49 50 48 48 48 48 48 49 49 48 48 50 51 50 50 51 48 46 48 48 48 49 50 49 49 50 52 53 55 54 53 54 53 54 55 56 56 55 55 58 60 62 63 63 63 62 62 63 63 61 62 62 62 62 62 61 63 63 62 59 59 58 56 58 59 59 59 58 56 56 58 60 61 61 60 60 60 61
43 44 47 48 49 48 49 49 49 48 48 48 48 48 49 49 48 49 50 51 51 51 50 48 48 48 47 47 51 49 49 51 50 54 54 52 52 52 53 52 53 54 55 56 54 54 55 58 59 61 61 62 61 61 61 61 61 61 61 61 61 62 62 63 63 62 59 59 59 58 55 55 57 58 58 57 56 56 58 60 60 60 59 59 60
41 42 45 48 49 48 48 49 49 48 49 48 47 48 49 51 48 49 50 50 51 53 53 49 49 48 48 50 49 49 48 54 49 50 50 51 50 50 52 51 52 53 54 54 54 54 54 54 54 56 57 58 57 56 56 57 59 61 61 61 61 59 61 61 62 63 62 60 56 57 56 54 54 56 56 58 57 56 56 57 59 59 60 60 60
41 42 43 47 48 48 48 48 49 48 48 48 47 48 49 49 49 49 50 51 51 54 51 51 51 51 51 50 50 49 49 48 48 48 50 55 50 49 50 52 52 52 53 54 55 53 53 54 54 54 54 54 54 54 54 54 54 56 58 59 59 59 58 60 61 63 62 63 60 57 56 54 54 56 57 57 58 58 56 55 56 57 58 60 60
42 41 42 45 47 48 48 48 48 48 48 48 48 48 49 49 49 49 50 50 51 51 50 50 50 50 49 48 45 45 45 46 46 47 48 48 48 49 50 51 51 51 51 53 55 53 52 53 53 53 53 53 53 53 53 53 53 53 54 55 55 58 59 58 57 59 61 62 62 61 59 57 57 58 57 55 58 57 60 57 55 56 56 58 60
43 42 42 44 47 48 48 48 48 47 48 48 48 48 48 49 50 50 50 51 51 51 50 51 48 49 49 47 46 46 46 46 46 46 48 48 49 49 49 50 51 51 51 51 53 53 52 52 53 53 53 53 54 52 52 52 53 53 54 53 54 55 56 55 55 56 59 59 59 61 61 61 61 59 56 57 55 58 59 59 59 58 56 55 54
43 42 42 42 46 48 47 48 48 47 48 48 48 48 48 49 50 50 51 52 51 51 50 50 47 48 47 46 48 47 46 47 47 46 47 50 49 49 49 49 50 50 50 51 52 54 51 51 51 52 52 52 53 51 51 51 51 52 53 53 53 54 54 53 53 55 55 55 58 58 60 61 61 61 60 58 57 56 57 61 59 59 60 60 59
42 42 42 42 45 47 47 47 48 47 48 48 48 47 48 49 50 51 51 52 51 51 51 49 49 48 47 47 48 48 47 48 49 51 49 52 48 48 47 48 48 49 50 50 51 54 54 50 50 51 51 52 53 51 51 50 50 50 50 50 51 52 54 54 53 53 54 55 55 55 58 58 58 61 61 61 58 56 55 56 56 58 59 60 61
41 42 42 42 44 46 48 48 48 47 48 48 47 47 48 49 50 51 51 51 51 50 51 49 48 49 47 47 47 48 49 47 48 48 48 46 47 47 47 47 48 48 49 49 49 50 50 51 51 51 52 53 53 49 49 49 50 50 50 50 50 51 52 53 53 53 53 54 55 55 54 55 55 58 58 56 58 58 55 54 56 56 56 58 59
39 42 42 42 44 46 48 47 47 47 48 48 47 47 48 49 49 50 51 51 51 50 50 48 48 48 47 47 47 48 47 47 46 46 47 46 46 46 46 47 48 49 48 50 49 51 53 54 51 51 52 54 51 49 49 49 50 50 50 50 50 50 51 51 51 52 52 52 53 54 54 55 54 54 54 55 55 55 54 54 54 54 55 55 58
37 41 42 43 45 47 47 47 47 47 47 47 47 47 48 49 49 49 50 51 51 50 50 48 48 49 47 48 47 48 48 47 46 46 47 46 46 47 46 47 47 47 48 49 48 50 51 51 52 50 50 49 49 50 50 50 50 50 50 50 50 50 51 51 50 50 51 51 52 53 54 54 55 54 55 55 55 54 54 53 54 55 55 56 56
37 40 42 43 44 46 47 47 47 47 47 47 47 46 47 49 49 49 49 50 51 50 50 49 48 48 48 48 47 49 48 47 46 46 47 46 46 46 46 46 46 47 47 48 48 49 51 48 49 49 50 51 50 49 49 49 49 50 49 49 49 50 50 49 49 49 50 51 51 52 54 54 54 55 55 55 56 56 55 53 53 54 54 54 55
38 40 42 43 44 46 47 47 47 47 47 47 47 46 47 48 49 48 48 50 50 50 49 48 48 48 48 48 48 50 48 47 46 46 46 47 47 47 47 46 47 47 46 48 48 50 50 50 49 49 49 51 50 49 50 50 49 49 48 49 49 50 50 49 49 49 50 50 51 52 51 52 53 54 54 55 55 55 54 53 53 53 55 53 55
39 40 42 44 45 46 47 47 47 47 47 47 47 47 47 47 48 49 48 49 50 50 49 48 48 48 49 49 49 50 49 48 46 46 46 47 47 47 47 46 46 46 47 47 50 49 49 49 49 49 49 49 49 49 49 48 49 49 50 49 49 49 48 49 48 48 48 49 49 50 51 52 51 51 53 54 55 55 55 54 54 51 51 52 52
40 41 42 44 45 46 47 48 48 48 47 47 47 48 47 47 48 48 48 48 50 50 50 49 47 47 49 49 49 50 51 50 48 48 47 47 47 47 47 47 47 47 46 49 49 49 49 50 50 48 48 49 49 48 48 48 48 49 48 47 48 50 48 48 48 48 48 49 49 49 50 49 50 51 52 53 54 55 55 56 55 54 51 49 51
37 41 42 43 45 46 47 48 48 48 48 48 47 48 48 48 48 48 49 49 50 50 50 49 48 47 48 49 49 49 50 49 49 48 47 47 47 47 47 47 47 47 47 49 49 48 49 48 48 48 48 47 47 48 48 48 48 48 47 47 47 47 50 48 48 48 48 49 49 49 49 49 50 50 51 52 53 54 55 55 56 55 53 51 49
29 36 42 45 46 47 47 47 48 48 49 49 49 49 49 49 49 49 50 49 50 50 50 49 49 48 48 49 49 49 49 50 49 49 48 48 47 47 47 47 47 48 49 49 48 48 48 51 48 47 46 47 47 47 48 48 48 48 47 47 47 48 47 48 49 49 48 48 50 48 48 48 49 50 50 51 52 53 53 54 55 55 56 53 51
28 29 33 40 44 45 46 47 48 48 49 50 50 50 50 50 50 50 50 51 50 51 50 50 49 49 49 49 49 49 49 49 49 48 48 47 47 48 47 48 48 48 50 49 47 48 49 47 46 46 46 47 46 47 47 47 46 46 48 46 46 46 46 46 46 48 48 48 47 47 47 47 48 48 49 50 51 51 52 52 53 54 54 55 53
29 29 30 33 37 43 45 46 47 48 49 50 50 51 51 51 51 51 51 51 52 52 51 50 50 49 49 49 50 49 49 49 49 48 48 47 47 48 48 47 47 49 49 48 47 48 47 46 45 46 45 45 45 46 46 46 45 45 45 44 45 45 45 45 45 46 46 45 45 45 45 46 47 47 47 48 48 49 50 51 51 52 53 54 54
29 30 31 32 33 36 42 46 47 47 48 49 50 51 51 52 52 52 51 52 52 53 52 52 50 50 50 49 49 50 49 49 49 48 48 48 48 48 48 48 48 48 48 47 47 47 46 46 45 47 45 45 45 45 45 44 45 44 44 44 44 44 44 44 46 44 44 44 45 44 44 45 46 46 46 47 47 47 48 49 50 51 51 52 53
29 30 31 32 33 35 37 41 47 48 48 48 50 51 52 52 52 52 52 52 53 53 53 53 52 51 50 49 49 50 50 50 49 48 48 48 48 48 48 48 48 48 47 47 46 46 46 45 45 46 45 45 44 44 44 44 44 43 43 44 44 43 43 43 43 43 43 44 44 43 43 44 44 45 46 45 45 46 46 46 47 48 49 49 52
31 31 32 32 33 35 37 38 38 41 44 48 49 50 51 52 53 53 53 53 53 53 54 54 53 52 51 50 50 49 50 49 49 49 48 48 48 48 48 48 48 47 48 47 46 46 45 45 45 45 44 44 44 44 43 43 43 43 42 42 44 43 43 43 43 43 42 43 43 43 42 44 45 45 45 45 46 46 47 46 47 48 48 48 49
30 32 33 34 35 36 36 37 38 39 39 41 44 48 50 51 52 53 53 53 53 53 54 54 52 52 52 51 50 50 49 49 49 49 49 48 48 48 49 48 47 47 47 47 46 46 45 45 45 45 44 44 43 44 43 43 43 42 42 42 42 43 43 43 43 42 42 43 42 41 41 42 44 44 44 45 45 45 46 46 46 47 48 48 49
31 32 33 34 35 36 37 38 38 38 40 40 41 43 47 50 52 52 53 53 53 53 53 53 53 53 52 51 50 50 49 49 49 49 49 49 48 48 48 47 47 47 46 46 46 45 45 44 44 44 44 43 43 42 42 42 42 42 42 42 42 42 42 42 42 42 44 43 41 41 40 42 42 42 42 42 42 43 42 44 44 44 45 45 46
31 32 33 34 35 36 37 38 38 38 38 39 40 41 44 46 49 51 52 53 53 53 53 53 53 53 53 52 51 50 50 49 49 49 49 49 48 48 48 47 47 46 46 46 45 45 45 44 44 44 43 43 42 42 41 41 41 43 42 42 43 42 42 41 40 40 40 41 40 40 40 41 41 41 41 41 42 42 42 43 42 42 42 43 44
32 33 33 34 36 36 37 38 39 39 39 39 39 39 40 42 44 47 49 52 53 53 53 53 53 53 53 52 52 51 50 50 49 49 49 48 48 48 48 47 47 46 45 45 45 45 46 44 44 43 43 42 42 41 41 41 41 41 41 40 39 39 39 39 39 39 39 39 39 39 40 40 40 40 41 40 41 41 42 42 43 43 43 43 43
33 33 34 34 35 36 37 37 38 38 38 38 39 39 40 41 41 44 47 49 51 52 53 53 53 53 52 52 52 51 50 50 49 48 48 48 48 47 47 47 47 46 45 45 45 45 45 44 43 43 42 42 41 40 40 41 41 41 41 40 39 39 39 38 39 38 39 39 39 39 39 39 40 40 40 40 41 41 41 42 43 43 42 41 41
33 33 34 34 35 35 36 37 38 38 38 38 39 39 39 40 41 42 43 45 49 51 52 52 53 53 52 52 52 51 50 50 49 48 48 47 47 46 47 47 46 46 46 45 45 44 44 42 41 41 41 41 40 40 41 40 40 38 38 38 38 38 38 38 38 38 38 38 39 39 39 39 41 42 42 42 42 42 42 41 41 41 41 40 40
33 33 34 34 35 36 36 37 36 37 38 38 39 39 39 40 40 41 42 43 46 48 50 51 52 52 53 52 51 50 50 49 49 49 48 47 47 47 46 46 46 45 45 45 44 43 43 41 40 39 39 39 39 41 44 40 41 41 39 38 38 38 38 38 38 38 38 38 38 39 40 41 41 42 41 40 40 40 41 41 40 40 40 39 39
33 33 34 34 35 36 36 37 37 37 37 38 39 39 39 40 40 41 42 43 44 46 47 49 51 52 52 51 50 49 49 49 49 49 48 47 47 47 47 47 46 45 44 44 43 41 40 39 38 38 38 38 39 39 38 37 37 38 39 38 38 37 38 37 38 37 37 37 38 37 38 39 40 40 40 39 38 38 38 39 39 40 40 40 39
33 33 34 35 36 37 37 37 37 37 37 37 39 39 40 40 41 41 42 43 44 45 45 47 49 50 51 51 50 49 49 49 49 48 48 47 47 47 47 46 45 45 44 43 42 39 38 38 37 36 37 38 38 39 37 37 37 36 38 39 37 36 37 36 36 36 36 37 36 37 37 38 38 38 38 38 38 38 37 37 37 37 37 37 38
33 34 35 34 35 37 38 38 38 39 39 39 39 39 40 40 41 42 43 43 44 44 44 45 46 48 49 49 49 48 48 48 48 47 47 47 47 46 45 44 44 44 42 41 38 37 37 36 36 35 37 39 36 38 36 36 36 35 35 36 35 35 35 36 35 35 36 35 35 36 36 36 36 37 38 37 38 38 38 38 38 38 38 38 36
33 34 34 34 36 37 38 38 38 39 39 39 40 40 41 41 42 43 42 43 43 44 44 45 45 46 47 48 48 48 48 47 47 47 47 46 46 46 45 44 43 41 40 38 37 37 36 36 35 36 35 36 35 36 36 36 35 35 34 35 35 34 35 35 35 35 35 35 35 35 34 34 35 36 36 36 36 36 36 36 37 36 36 37 37
33 34 34 35 36 36 37 38 38 39 40 39 40 40 41 41 42 42 42 43 43 43 44 44 45 46 46 47 47 47 47 46 46 46 45 46 46 44 43 42 41 40 39 38 38 35 35 37 36 34 34 34 35 38 35 35 35 35 34 35 35 35 34 34 35 35 34 34 34 35 34 34 34 35 35 36 35 35 36 36 36 35 35 35 35
34 34 35 35 36 37 38 39 40 40 39 39 40 41 41 42 42 43 43 43 43 43 44 44 44 45 46 46 46 46 45 44 44 45 45 44 43 42 41 40 39 39 38 38 36 36 35 34 34 33 34 33 33 35 35 35 35 34 34 34 34 33 33 33 33 34 33 34 34 34 34 33 33 33 35 35 35 35 34 33 33 33 33 33 34
35 35 35 36 37 38 38 39 39 39 39 39 40 41 42 42 42 42 43 43 43 43 43 44 44 45 45 46 46 46 45 44 44 44 43 42 41 40 39 38 37 36 35 34 34 33 32 32 34 33 32 32 31 35 34 35 34 34 34 33 32 33 33 32 32 33 33 33 34 33 33 33 33 33 34 33 34 35 32 32 32 32 33 33 33
35 36 36 37 38 38 39 39 38 39 39 40 41 42 41 41 42 42 42 42 42 43 43 44 44 45 45 46 46 45 44 44 44 44 42 41 39 38 37 37 35 34 34 33 32 32 31 32 33 33 31 31 31 33 35 34 34 33 34 33 32 32 32 32 32 33 33 33 33 35 36 33 34 34 34 34 34 34 32 31 31 31 31 31 31
36 36 36 37 38 38 39 39 39 38 39 40 41 41 41 41 42 42 42 42 42 43 43 43 44 44 45 45 45 44 44 43 41 40 39 38 37 37 37 35 35 34 34 33 34 30 32 32 32 31 38 33 32 34 35 34 34 34 34 33 32 32 31 31 31 31 32 32 32 33 34 33 32 33 33 33 33 33 31 31 30 30 30 30 30
36 36 37 37 39 38 37 37 37 38 39 40 41 41 41 42 42 42 42 42 42 43 43 43 44 44 44 44 43 43 41 39 38 38 39 39 38 37 36 35 35 34 34 34 34 31 31 31 32 35 35 35 32 31 34 34 34 33 34 33 32 32 31 31 31 31 32 32 31 31 32 32 32 32 32 32 33 33 32 31 30 30 29 29 30
36 36 38 37 37 37 37 38 38 39 40 41 41 41 41 42 42 42 42 42 43 43 43 43 42 42 42 41 41 40 39 38 38 38 38 39 39 37 36 36 35 34 34 34 33 32 31 31 31 31 30 31 32 31 33 34 33 33 33 33 32 31 31 31 31 31 31 31 31 31 32 33 33 33 33 33 33 33 33 33 32 31 30 31 31
36 38 37 36 36 36 37 38 39 39 40 41 41 41 42 42 42 42 42 42 42 42 42 41 42 41 40 40 39 39 39 39 39 39 37 37 37 35 34 35 33 33 31 31 32 33 30 30 29 29 31 31 32 36 33 33 33 33 33 33 32 32 33 31 32 31 31 31 31 31 31 32 33 33 33 33 33 33 33 34 33 33 33 33 32
34 35 36 37 36 37 37 38 39 40 41 42 42 42 42 42 41 41 41 41 42 42 41 41 41 40 39 38 38 39 39 39 38 37 35 36 34 33 33 33 32 31 31 30 29 29 30 29 29 30 30 30 30 30 33 33 32 32 32 33 33 32 33 32 32 31 31 31 31 31 32 33 32 32 32 32 33 33 33 32 33 33 33 33 33
35 35 36 37 37 37 38 38 39 40 41 42 42 42 42 40 39 39 39 40 41 41 41 40 39 39 39 39 38 38 38 38 37 36 36 34 34 34 32 31 31 31 30 29 28 29 28 29 29 29 30 30 30 29 30 33 31 31 32 32 32 33 33 32 33 32 31 31 31 31 31 32 33 33 33 33 33 33 33 33 33 33 33 33 33
35 36 36 37 37 37 38 38 39 40 41 41 41 40 39 38 38 39 39 40 41 40 40 39 38 38 38 37 36 36 36 37 36 36 34 34 33 32 32 31 31 30 31 29 29 30 30 30 30 30 29 29 29 28 27 30 30 31 32 32 32 32 32 33 32 32 32 31 32 33 33 33 33 33 33 33 33 33 33 33 33 33 34 33 33
35 35 36 37 37 38 38 38 39 40 41 40 39 38 37 38 39 39 40 40 40 40 39 38 37 37 36 35 35 36 36 36 35 34 33 32 32 32 31 31 31 30 30 30 30 30 30 30 30 29 29 28 29 28 28 28 30 31 31 31 32 32 33 33 33 32 33 33 33 33 33 33 33 33 33 32 32 32 33 33 33 34 34 33 33
35 36 37 37 38 38 38 38 38 39 41 41 39 39 39 40 40 41 41 41 40 40 40 40 40 39 37 34 34 34 35 34 34 35 34 34 33 32 32 32 31 30 29 30 30 30 30 29 28 28 28 28 28 27 27 27 28 28 29 30 31 32 33 33 33 32 32 31 31 32 32 32 32 33 33 33 33 33 33 33 33 33 33 33 33
36 37 37 37 38 38 38 38 39 40 42 40 40 40 41 42 42 41 40 39 39 39 39 39 39 39 36 34 35 32 34 33 33 31 32 32 31 31 31 31 30 30 29 28 27 28 28 27 27 27 27 27 27 27 27 28 28 29 30 31 31 32 32 32 32 32 31 31 31 32 32 32 32 32 32 32 33 33 33 32 33 33 33 33 34
36 37 38 38 38 39 39 39 39 41 43 41 41 42 42 42 41 40 39 38 39 37 38 38 38 38 38 36 36 34 32 31 30 30 30 31 30 30 30 29 30 31 30 29 26 26 29 27 26 27 27 27 27 27 28 31 32 32 32 32 32 32 32 32 32 32 32 31 31 32 31 31 32 31 31 31 32 33 32 33 33 33 34 34 34
37 38 38 39 40 39 39 40 40 42 43 42 42 42 42 42 41 40 39 37 37 37 38 38 38 38 34 32 30 30 29 29 28 28 28 29 29 32 31 29 27 33 32 31 30 27 26 28 27 29 29 27 28 29 31 32 32 33 33 33 33 33 32 32 32 32 32 30 30 29 30 30 30 30 30 30 30 31 31 31 31 32 33 34 34
37 38 38 39 39 39 40 41 41 43 42 42 42 42 42 42 41 41 40 39 38 38 37 34 32 30 30 30 29 29 28 27 28 28 29 28 29 30 31 32 32 33 33 33 32 32 33 33 32 28 30 31 32 32 32 32 33 33 33 33 32 32 32 32 32 31 30 29 29 29 29 29 30 30 30 30 30 30 30 30 31 31 32 32 32